Weather History for KADF - February, 2014

Change the Weather History Date:

Saturday, February 8, 2014

  Actual Average Record
Temperature  
Mean Temperature 29 °F -  
Max Temperature 34 °F - - ()
Min Temperature 24 °F - - ()
Degree Days  
Heating Degree Days 36    
Moisture  
Dew Point 29 °F    
Average Humidity 95    
Maximum Humidity 100    
Minimum Humidity 86    
Precipitation  
Precipitation 0.02 in - - ()
Sea Level Pressure  
Sea Level Pressure 30.26 in    
Wind  
Wind Speed 3 mph (NE)    
Max Wind Speed 6 mph    
Max Gust Speed -    
Visibility 7 miles    
Events Snow    
T = Trace of Precipitation, MM = Missing Value Source: NWS Daily Summary

Daily Weather History Graph

Daily Weather History Graph

Search for Another Location

Airport or City:

Trip Planner

Search our weather history database for the weather conditions in past years. The results will help you decide how hot, cold, wet, or windy it might be!

Date:

Astronomy

Feb. 08, 2014 Rise Set
Actual Time 7:03 AM CST 5:49 PM CST
Civil Twilight 6:37 AM CST 6:15 PM CST
Nautical Twilight 6:08 AM CST 6:45 PM CST
Astronomical Twilight 5:38 AM CST 7:14 PM CST
Moon 12:48 PM CST (2/8) 2:13 AM CST (2/8)
Length of Visible Light 11h 37m
Length of Day
10h 45m
Waxing Gibbous, 69% of the Moon is Illuminated
Feb 8
Waxing Gibbous
Feb 14
Full
Feb 22
Last Quarter
Mar 1
New
Mar 8
First Quarter

Hourly Weather History & Observations

Time (CST) Temp. Windchill Dew Point Humidity Pressure Visibility Wind Dir Wind Speed Gust Speed Precip Events Conditions
12:04 AM 26.6 °F 22.6 °F 23.0 °F 86% 30.31 in 6.0 mi NE 3.5 mph - 0.00 in Snow Light Snow
12:15 AM 26.6 °F 22.6 °F 23.0 °F 86% 30.31 in 10.0 mi Variable 3.5 mph - 0.00 in Snow Light Snow
12:56 AM 25.2 °F 18.3 °F 24.1 °F 96% 30.34 in 4.0 mi ENE 5.8 mph - 0.00 in   Overcast
1:06 AM 24.8 °F 20.5 °F 24.8 °F 100% 30.29 in 4.0 mi NE 3.5 mph - N/A   Overcast
1:23 AM 24.8 °F - 24.8 °F 100% 30.29 in 4.0 mi Calm Calm - N/A   Overcast
1:56 AM 25.2 °F 20.9 °F 24.1 °F 96% 30.33 in 7.0 mi NE 3.5 mph - 0.01 in   Mostly Cloudy
2:06 AM 24.8 °F 19.1 °F 24.8 °F 100% 30.28 in 8.0 mi NE 4.6 mph - N/A   Mostly Cloudy
2:32 AM 24.8 °F 17.9 °F 24.8 °F 100% 30.28 in 7.0 mi North 5.8 mph - N/A   Overcast
2:56 AM 25.2 °F 19.5 °F 24.1 °F 96% 30.32 in 4.0 mi NNE 4.6 mph - 0.00 in Snow Light Snow
3:56 AM 26.1 °F 20.5 °F 25.2 °F 96% 30.32 in 5.0 mi NNE 4.6 mph - 0.00 in   Overcast
4:56 AM 25.2 °F 19.5 °F 25.2 °F 100% 30.32 in 8.0 mi NE 4.6 mph - N/A   Mostly Cloudy
5:56 AM 26.1 °F - 25.2 °F 96% 30.32 in 10.0 mi Calm Calm - N/A   Overcast
6:56 AM 26.1 °F - 25.2 °F 96% 30.33 in 7.0 mi Calm Calm - N/A   Overcast
7:56 AM 26.1 °F - 25.2 °F 96% 30.34 in 5.0 mi Calm Calm - N/A   Overcast
8:56 AM 27.1 °F 23.2 °F 26.1 °F 96% 30.35 in 5.0 mi ENE 3.5 mph - N/A   Overcast
9:56 AM 27.1 °F - 27.1 °F 100% 30.34 in 3.0 mi Calm Calm - 0.01 in   Overcast
10:56 AM 29.1 °F - 28.0 °F 96% 30.34 in 5.0 mi Calm Calm - N/A   Mostly Cloudy
11:56 AM 30.0 °F 26.5 °F 29.1 °F 96% 30.30 in 8.0 mi SE 3.5 mph - N/A   Overcast
12:56 PM 31.1 °F - 29.1 °F 92% 30.27 in 9.0 mi Calm Calm - N/A   Mostly Cloudy
1:17 PM 32.0 °F 28.7 °F 28.4 °F 87% 30.20 in 10.0 mi SSE 3.5 mph - N/A   Mostly Cloudy
1:56 PM 32.0 °F - 30.0 °F 92% 30.25 in 10.0 mi Calm Calm - N/A   Mostly Cloudy
2:56 PM 32.9 °F - 30.0 °F 89% 30.25 in 10.0 mi Calm Calm - N/A   Mostly Cloudy
3:05 PM 33.8 °F - 30.2 °F 87% 30.18 in 10.0 mi Calm Calm - N/A   Scattered Clouds
3:42 PM 33.8 °F 30.8 °F 30.2 °F 87% 30.17 in 10.0 mi ENE 3.5 mph - N/A   Mostly Cloudy
3:56 PM 32.9 °F 29.8 °F 31.1 °F 93% 30.22 in 10.0 mi ENE 3.5 mph - N/A   Mostly Cloudy
4:56 PM 34.0 °F 31.0 °F 32.0 °F 92% 30.20 in 9.0 mi East 3.5 mph - N/A   Overcast
5:56 PM 34.0 °F 31.0 °F 32.9 °F 96% 30.19 in 9.0 mi East 3.5 mph - N/A   Overcast
6:56 PM 34.0 °F - 32.9 °F 96% 30.19 in 6.0 mi Calm Calm - N/A   Mostly Cloudy
7:05 PM 33.8 °F 30.8 °F 33.8 °F 100% 30.14 in 7.0 mi ENE 3.5 mph - N/A   Overcast
7:56 PM 34.0 °F 29.8 °F 32.9 °F 96% 30.20 in 5.0 mi NNW 4.6 mph - N/A   Overcast
8:56 PM 34.0 °F 29.8 °F 32.9 °F 96% 30.20 in 5.0 mi NNW 4.6 mph - N/A   Overcast
9:56 PM 34.0 °F 28.8 °F 32.9 °F 96% 30.24 in 4.0 mi NNW 5.8 mph - N/A   Mostly Cloudy
10:21 PM 33.8 °F 29.6 °F 33.8 °F 100% 30.19 in 4.0 mi NNE 4.6 mph - N/A   Mostly Cloudy
10:56 PM 34.0 °F - 34.0 °F 100% 30.24 in 3.0 mi Calm Calm - N/A   Mostly Cloudy
11:05 PM 33.8 °F - 33.8 °F 100% 30.18 in 2.5 mi Calm Calm - N/A   Overcast
11:56 PM 32.9 °F 28.5 °F 32.9 °F 100% 30.22 in 2.5 mi NE 4.6 mph - N/A   Overcast